Location: Shiley Oil Field
(38.3147°N, 99.4851°W)
Time: 19:32:17
(UTC+00:00)

Daily predictions for brighter satellites

Satellite Brightness Start Highest point End
(mag) Time Altitude Azimuth Time Altitude Azimuth Time Altitude Azimuth
Envisat 4.4 12:00:48 10° NNE 12:05:35 40° E 12:10:20 10° SSE
deb Chang Zheng 4 4.0 12:02:58 10° N 12:07:00 39° WNW 12:11:02 10° SW
SKYMED 2 3.5 12:04:22 10° S 12:08:40 69° WSW 12:13:01 10° NNW
Meteor 1-4 Rocket 3.4 12:10:47 10° N 12:14:09 48° E 12:17:29 10° SSE
Cosmos 2084 4.3 12:10:06 12° NNW 12:14:13 52° NE 12:18:36 10° SE
ATLAS 2AS CENTAUR R/B 3.1 12:07:59 10° SSW 12:15:54 87° ESE 12:23:53 10° NNE
USA 234 3.2 12:09:45 10° NE 12:16:14 69° NW 12:22:43 10° WSW
H-2A R/B 3.7 12:14:32 10° NNE 12:18:14 41° E 12:21:51 10° S
USA 276 2.8 12:18:15 27° W 12:19:22 37° SW 12:22:18 10° SSE
Delta 2 Rocket 4.0 12:16:38 19° W 12:19:41 49° SSW 12:23:44 10° ESE
Okean O Rocket 4.1 12:16:31 10° NE 12:20:15 26° E 12:23:59 10° SSE
CENTAUR R/B 3.3 12:13:28 10° NNW 12:21:51 90° WSW 12:30:47 10° SSE
ERBS 3.5 12:22:27 22° NW 12:22:54 22° NW 12:25:35 10° NNE
H-2A R/B 2.7 12:20:02 10° N 12:23:58 82° WNW 12:27:51 10° SSW
Meteor 1-26 Rocket 4.3 12:20:36 10° N 12:26:28 90° WSW 12:32:07 10° S
SL-16 R/B 3.6 12:28:22 15° W 12:29:45 17° W 12:33:12 10° SW
NOSS 3-2 (A) 4.3 12:22:45 10° NW 12:30:21 55° WSW 12:38:42 10° S
CZ-4C R/B 2.6 12:26:01 10° SSW 12:30:37 59° ESE 12:36:02 10° NE
Cosmos 1933 3.6 12:28:05 10° NNW 12:32:02 47° W 12:35:57 10° SSW
SMAP 4.3 12:31:53 10° NNE 12:36:23 46° E 12:40:50 10° S
Cosmos 1633 3.3 12:33:20 10° SW 12:36:27 30° WNW 12:39:36 10° NNW
SJ-7 4.3 12:32:37 10° N 12:36:39 72° WNW 12:40:42 10° SSW
Cosmos 1500 Rocket 4.3 12:32:54 10° S 12:37:06 55° E 12:41:20 10° NNE
CZ-4B DEB 4.3 12:31:42 10° NNE 12:37:11 83° ESE 12:42:38 10° SSW
ASTRO E2 4.2 12:37:08 10° WSW 12:40:38 30° S 12:44:08 10° ESE
RESURS DK-1 3.6 12:37:06 10° S 12:41:04 47° ESE 12:45:05 10° NE
YAOGAN 6 2.4 12:38:06 10° N 12:41:38 86° WNW 12:45:06 10° SSW
Okean 3 Rocket 4.4 12:39:21 10° SW 12:43:09 28° WNW 12:46:58 10° NNW
Cosmos 2151 4.5 12:40:44 10° WSW 12:43:12 15° WNW 12:45:40 10° NW
Cosmos 1151 Rocket 3.3 12:40:01 10° NNW 12:44:04 45° W 12:48:08 10° SSW
USA 238 DEB 4.2 12:37:14 10° NW 12:44:12 48° WSW 12:51:23 10° S
USA 238 4.2 12:37:19 10° NW 12:44:18 48° WSW 12:51:29 10° S
PSLV R/B 3.8 12:40:34 10° N 12:44:24 56° WNW 12:48:07 10° SSW
Cosmos 1844 Rocket 3.5 12:39:15 10° S 12:44:44 57° ESE 12:50:16 10° NNE
ERS-2 4.2 12:44:21 10° WSW 12:45:06 11° W 12:45:29 10° W
Cosmos 1328 Rocket 3.7 12:42:01 10° NNW 12:46:17 51° W 12:50:33 10° SSW
Meteor 2-3 Rocket 4.2 12:44:16 10° SW 12:49:34 40° WNW 12:54:58 10° N
Cosmos 990 Rocket 4.0 12:44:40 10° SSW 12:49:53 82° WNW 12:55:10 10° NNE
Cosmos 2181 Rocket 4.2 12:44:35 10° NNW 12:50:33 50° W 12:56:25 10° SSW
Lacrosse 4 Rocket 1.8 12:47:16 10° NNW 12:51:35 68° ENE 12:55:57 10° SE
Cosmos 1689 Rocket 3.7 12:49:52 10° SW 12:51:46 16° W 12:53:40 10° NW
BREEZE-M DEB (TANK) 3.1 12:48:38 10° WSW 12:51:52 72° NNW 13:01:49 10° NE
SL-4 R/B 3.6 12:49:36 10° WNW 12:52:11 17° NNW 12:54:40 10° NNE
NOAA 6 4.0 12:47:54 10° N 12:53:00 74° WNW 12:58:05 10° SSW
OAO 3 Rocket 4.1 12:49:02 10° W 12:53:23 38° SSW 12:57:47 10° SE
Cosmos 1782 2.9 12:50:23 10° NNW 12:54:20 57° W 12:58:16 10° S
COSMO-SKYMED 1 4.0 12:53:47 10° SW 12:56:55 19° W 13:00:05 10° NW
SJ 16-02 2.1 12:54:12 10° SW 12:58:07 31° WNW 13:02:03 10° N
Cosmos 1743 Rocket 3.5 12:54:23 10° S 12:58:47 79° W 13:03:15 10° N
Cosmos 1461 3.2 12:54:52 10° NW 12:59:32 67° WSW 13:03:58 10° SSE
Lacrosse 5 1.9 12:55:06 10° SW 13:00:07 62° NW 13:05:09 10° NE
Cosmos 1680 Rocket 3.7 12:55:33 10° NNW 13:00:54 84° ENE 13:06:13 10° SSE
Cosmos 2154 Rocket 4.2 12:54:45 10° S 13:00:56 83° E 13:07:12 10° N
BREEZE M DEB (TANK) 2.9 12:51:36 10° SW 13:01:18 79° NW 13:04:20 10° NE
Nadezhda 1 Rocket 4.1 23:36:58 10° S 23:43:07 60° E 23:49:23 10° NNE
SL-16 R/B 3.5 23:48:32 10° SSE 23:52:37 21° E 23:56:42 10° NE
Abrixas rocket 3.2 23:51:14 10° NNW 23:53:30 22° NNE 23:55:46 10° ENE
Lacrosse 5 rocket 3.2 23:52:09 10° SE 23:53:42 12° ESE 23:55:14 10° E
PAYLOAD B 4.3 23:48:19 10° SSE 23:53:55 90° WNW 23:59:32 10° NNW
Cosmos 1862 3.3 23:51:34 10° N 23:55:34 59° E 23:59:30 10° SSE
Cosmos 2292 4.2 23:53:13 10° S 23:56:09 59° E 23:59:23 10° NNE
